TimeCDT,TemperatureF,Dew PointF,Humidity,Sea Level PressureIn,VisibilityMPH,Wind Direction,Wind SpeedMPH,Gust SpeedMPH,PrecipitationIn,Events,Conditions,WindDirDegrees,DateUTC
12:53 AM,33.1,23.0,66,30.30,10.0,Calm,Calm,-,N/A,,Clear,0,2013-04-03 05:53:00
1:53 AM,30.0,24.1,79,30.29,10.0,Calm,Calm,-,N/A,,Clear,0,2013-04-03 06:53:00
2:53 AM,30.9,24.1,76,30.30,10.0,Calm,Calm,-,N/A,,Clear,0,2013-04-03 07:53:00
3:53 AM,28.9,23.0,78,30.30,10.0,Calm,Calm,-,N/A,,Clear,0,2013-04-03 08:53:00
4:53 AM,28.9,23.0,78,30.31,10.0,North,3.5,-,N/A,,Clear,10,2013-04-03 09:53:00
5:53 AM,30.9,24.1,76,30.32,10.0,NNE,4.6,-,N/A,,Clear,20,2013-04-03 10:53:00
6:53 AM,32.0,23.0,69,30.34,10.0,ENE,4.6,-,N/A,,Clear,60,2013-04-03 11:53:00
7:53 AM,33.1,24.1,70,30.36,10.0,East,10.4,-,N/A,,Clear,100,2013-04-03 12:53:00
8:53 AM,37.0,25.0,62,30.35,10.0,East,11.5,-,N/A,,Clear,100,2013-04-03 13:53:00
9:53 AM,39.9,24.1,53,30.37,10.0,ESE,10.4,-,N/A,,Clear,110,2013-04-03 14:53:00
10:53 AM,43.0,25.0,49,30.37,10.0,East,5.8,-,N/A,,Clear,90,2013-04-03 15:53:00
11:53 AM,46.0,23.0,40,30.36,10.0,ESE,9.2,-,N/A,,Clear,120,2013-04-03 16:53:00
12:53 PM,48.0,24.1,39,30.35,10.0,Variable,6.9,-,N/A,,Clear,0,2013-04-03 17:53:00
1:53 PM,48.0,23.0,37,30.34,10.0,East,8.1,-,N/A,,Clear,90,2013-04-03 18:53:00
2:53 PM,48.0,23.0,37,30.32,10.0,East,3.5,-,N/A,,Clear,90,2013-04-03 19:53:00
3:53 PM,48.9,23.0,36,30.29,10.0,North,3.5,-,N/A,,Clear,10,2013-04-03 20:53:00
4:53 PM,48.9,23.0,36,30.27,10.0,East,8.1,-,N/A,,Clear,100,2013-04-03 21:53:00
5:53 PM,48.9,24.1,38,30.26,10.0,East,5.8,-,N/A,,Clear,80,2013-04-03 22:53:00
6:53 PM,48.0,25.0,41,30.26,10.0,East,4.6,-,N/A,,Mostly Cloudy,90,2013-04-03 23:53:00
7:53 PM,46.9,25.0,42,30.26,10.0,Calm,Calm,-,N/A,,Mostly Cloudy,0,2013-04-04 00:53:00
8:53 PM,43.0,28.0,56,30.26,10.0,Calm,Calm,-,N/A,,Clear,0,2013-04-04 01:53:00
9:53 PM,39.9,27.0,60,30.27,10.0,Calm,Calm,-,N/A,,Clear,0,2013-04-04 02:53:00
10:53 PM,41.0,27.0,57,30.27,10.0,NW,4.6,-,N/A,,Scattered Clouds,320,2013-04-04 03:53:00
11:53 PM,35.1,27.0,72,30.26,10.0,Calm,Calm,-,N/A,,Scattered Clouds,0,2013-04-04 04:53:00